Regional Weather Roundup
Issued by NWS

Home | Current Version | Previous Version | Text Only | Print | Product List | Glossary On
Versions: 1 2 3 4 5 6 7 8 9 10 11 12 13 14 15 16 17 18 19 20 21 22 23 24 25 26 27 28 29 30 31 32 33 34 35 36 37 38 39 40 41 42 43 44 45 46 47 48 49 50
905
ASUS44 KJAN 290203
RWRMS

MISSISSIPPI HOURLY WEATHER ROUNDUP
NATIONAL WEATHER SERVICE JACKSON MS
800 PM CST FRI NOV 28 2014

NOTE: "FAIR: INDICATES FEW OR NO CLOUDS BELOW 12,000 FEET WITH NO
SIGNIFICANT WEATHER AND/OR OBSTRUCTIONS TO VISIBILITY.

MSZ001>002-007>008-010>013-018>021-025>028-034>036-290300-
NORTHWEST MISSISSIPPI

CITY           SKY/WX    TMP DP  RH WIND       PRES   REMARKS
CLARKSDALE     FAIR      43  34  70 S7        30.16S
CLEVELAND      FAIR      46  35  65 S10       30.16S
GREENWOOD      CLEAR     47  28  47 S9        30.19F
GREENVILLE     CLEAR     47  31  53 S9        30.16S
GRENADA        FAIR      43  30  61 CALM      30.19S
OLIVE BRANCH   CLEAR     43  30  61 S7        30.14F
OXFORD         FAIR      45  28  53 SE9       30.19S
TUNICA         CLEAR     43  32  65 S9        30.15S
$$

MSZ003>006-009-014>017-022>024-029>033-037>039-290300-
NORTHEAST MISSISSIPPI

CITY           SKY/WX    TMP DP  RH WIND       PRES   REMARKS
COLUMBUS AFB   CLEAR     35  27  71 SE7       30.24S WCI  29
CORINTH        FAIR      45  27  49 S10       30.17F
GOLDN TRIANGLE CLEAR     45  25  45 S8        30.24S
STARKVILLE     FAIR      39  30  70 S5        30.23F
TUPELO         CLEAR     44  27  51 S10       30.21S
$$

MSZ040-058-290300-
CENTRAL MISSISSIPPI

CITY           SKY/WX    TMP DP  RH WIND       PRES   REMARKS
JACKSON INTL   CLEAR     45  31  58 S9        30.23S
JACKSON HAWKNS CLEAR     46  29  51 S7        30.23S
MERIDIAN KEY   CLEAR     37  31  78 CALM      30.27S
MERIDIAN NAS   CLEAR     43  29  57 SE5       30.27F
RAYMOND        FAIR      41  37  87 MISG      30.22F
VICKSBURG      CLEAR     48  33  56 S8        30.21F
$$

MSZ059>079-290300-
SOUTH MISSISSIPPI

CITY           SKY/WX    TMP DP  RH WIND       PRES   REMARKS
BROOKHAVEN     FAIR      45  32  61 S5        30.26S
HATTIESBURG    CLEAR     41  34  76 S5        30.29S
MCCOMB         CLEAR     44  29  55 S5        30.26S
NATCHEZ        CLEAR     50  32  50 S9        30.23S
PINE BELT      CLEAR     39  30  70 S3        30.27F
$$

MSZ080>082-290300-
COASTAL MISSISSIPPI

CITY           SKY/WX    TMP DP  RH WIND       PRES   REMARKS
BAY ST LOUIS   CLEAR     39  34  81 CALM      30.31R
BILOXI         CLEAR     49  36  60 SE1       30.30S
PASCAGOULA     CLEAR     36  34  92 CALM      30.31S
GULFPORT       CLEAR     42  38  85 CALM      30.30S
$$



USA.gov is the U.S. government's official web portal to all federal, state and local government web resources and services.